When you browse on this site, cookies collect data to enhance your experience and personalize the content and advertising you see.
Visit our Privacy Policy to learn more. By continuing to use the site, you agree to this use of cookies and data.
  • în România
  • Lista ţărilor
  • Pe 7 zile
  • Temperatura apei
  • Hartă satelitară
  • Meteo pe hartă
  • Widget-uri
  • user-avatar
    Intrare

    Meteo pe oră la Tucupita

    Astăzi, 22 Ianuarie, Marţi

    Timp Temperatura Precipitaţii Vânt Presiune Umiditate
    00:00 +24°C° 0 mm 1 m/s 761 mmHg 95%
    01:00 +24°C° 0 mm 1 m/s 760 mmHg 96%
    02:00 +23°C° 0 mm 1 m/s 760 mmHg 98%
    03:00 +23°C° 0 mm 1 m/s 760 mmHg 98%
    04:00 +23°C° 0 mm 1 m/s 760 mmHg 99%
    05:00 +23°C° 0 mm 1 m/s 760 mmHg 99%
    06:00 +24°C° 0 mm 1 m/s 761 mmHg 94%
    07:00 +25°C° 0 mm 1 m/s 761 mmHg 90%
    08:00 +27°C° 0 mm 1 m/s 761 mmHg 83%
    09:00 +28°C° 0.1 mm 2 m/s 761 mmHg 75%
    10:00 +30°C° 0.1 mm 2 m/s 761 mmHg 66%
    11:00 +32°C° 0.1 mm 2 m/s 761 mmHg 57%
    12:00 +33°C° 0.2 mm 3 m/s 761 mmHg 55%
    13:00 +34°C° 0.2 mm 3 m/s 760 mmHg 53%
    14:00 +34°C° 0.2 mm 3 m/s 759 mmHg 51%
    15:00 +34°C° 0.1 mm 3 m/s 759 mmHg 53%
    16:00 +33°C° 0.1 mm 3 m/s 759 mmHg 56%
    17:00 +31°C° 0.1 mm 3 m/s 759 mmHg 59%
    18:00 +30°C° 0 mm 3 m/s 759 mmHg 65%
    19:00 +28°C° 0 mm 2 m/s 759 mmHg 72%
    20:00 +26°C° 0 mm 2 m/s 760 mmHg 78%
    21:00 +26°C° 0 mm 2 m/s 760 mmHg 83%
    22:00 +25°C° 0 mm 2 m/s 761 mmHg 87%
    23:00 +24°C° 0 mm 1 m/s 761 mmHg 91%

    Mâine, 23 Ianuarie, Miercuri

    Timp Temperatura Precipitaţii Vânt Presiune Umiditate
    00:00 +24°C° 0 mm 1 m/s 761 mmHg 93%
    01:00 +24°C° 0 mm 1 m/s 760 mmHg 95%
    02:00 +23°C° 0 mm 1 m/s 760 mmHg 97%
    03:00 +23°C° 0.1 mm 1 m/s 760 mmHg 98%
    04:00 +23°C° 0.1 mm 1 m/s 760 mmHg 98%
    05:00 +23°C° 0.1 mm 1 m/s 760 mmHg 98%
    06:00 +24°C° 0 mm 1 m/s 761 mmHg 96%
    07:00 +24°C° 0 mm 1 m/s 761 mmHg 94%
    08:00 +25°C° 0 mm 1 m/s 762 mmHg 91%
    09:00 +27°C° 0.2 mm 1 m/s 762 mmHg 82%
    10:00 +28°C° 0.2 mm 2 m/s 762 mmHg 74%
    11:00 +30°C° 0.2 mm 2 m/s 762 mmHg 65%
    12:00 +29°C° 0.4 mm 2 m/s 761 mmHg 68%
    13:00 +29°C° 0.4 mm 2 m/s 760 mmHg 72%
    14:00 +28°C° 0.4 mm 2 m/s 760 mmHg 75%
    15:00 +29°C° 0 mm 2 m/s 759 mmHg 70%
    16:00 +30°C° 0 mm 2 m/s 759 mmHg 65%
    17:00 +30°C° 0 mm 3 m/s 759 mmHg 60%
    18:00 +29°C° 0 mm 2 m/s 759 mmHg 67%
    19:00 +27°C° 0 mm 2 m/s 759 mmHg 74%
    20:00 +25°C° 0 mm 1 m/s 760 mmHg 81%
    21:00 +25°C° 0 mm 1 m/s 760 mmHg 85%
    22:00 +24°C° 0 mm 1 m/s 760 mmHg 90%
    23:00 +23°C° 0 mm 1 m/s 761 mmHg 94%

    Poimâine, 24 Ianuarie, Joi

    Timp Temperatura Precipitaţii Vânt Presiune Umiditate
    00:00 +23°C° 0 mm 1 m/s 760 mmHg 95%
    01:00 +23°C° 0 mm 1 m/s 760 mmHg 97%
    02:00 +22°C° 0 mm 1 m/s 760 mmHg 98%
    03:00 +22°C° 0 mm 1 m/s 760 mmHg 98%
    04:00 +20°C° 0 mm 0 m/s 760 mmHg 98%
    05:00 +20°C° 0 mm 0 m/s 759 mmHg 98%
    06:00 +23°C° 0 mm 1 m/s 760 mmHg 93%
    07:00 +25°C° 0 mm 1 m/s 760 mmHg 88%
    08:00 +26°C° 0 mm 2 m/s 761 mmHg 83%
    09:00 +28°C° 0 mm 2 m/s 761 mmHg 73%
    10:00 +30°C° 0 mm 2 m/s 761 mmHg 63%
    11:00 +33°C° 0 mm 3 m/s 761 mmHg 53%
    12:00 +32°C° 0 mm 2 m/s 760 mmHg 51%
    13:00 +32°C° 0 mm 2 m/s 759 mmHg 49%
    14:00 +34°C° 0 mm 2 m/s 759 mmHg 47%
    15:00 +32°C° 0 mm 2 m/s 758 mmHg 49%
    16:00 +31°C° 0 mm 2 m/s 758 mmHg 51%
    17:00 +31°C° 0 mm 2 m/s 758 mmHg 53%
    18:00 +29°C° 0 mm 2 m/s 758 mmHg 59%
    19:00 +28°C° 0 mm 2 m/s 759 mmHg 65%
    20:00 +26°C° 0 mm 2 m/s 760 mmHg 71%
    21:00 +25°C° 0 mm 2 m/s 760 mmHg 78%
    22:00 +24°C° 0 mm 1 m/s 760 mmHg 84%
    23:00 +23°C° 0 mm 1 m/s 761 mmHg 90%

    25 Ianuarie, Vineri

    Timp Temperatura Precipitaţii Vânt Presiune Umiditate
    00:00 +23°C° 0 mm 1 m/s 760 mmHg 92%
    01:00 +22°C° 0 mm 1 m/s 760 mmHg 94%
    02:00 +22°C° 0 mm 1 m/s 760 mmHg 97%
    03:00 +22°C° 0 mm 1 m/s 760 mmHg 97%
    04:00 +22°C° 0 mm 1 m/s 760 mmHg 97%
    05:00 +20°C° 0 mm 0 m/s 760 mmHg 98%
    06:00 +23°C° 0 mm 1 m/s 760 mmHg 92%
    07:00 +24°C° 0 mm 1 m/s 761 mmHg 87%
    08:00 +25°C° 0 mm 1 m/s 761 mmHg 82%
    09:00 +27°C° 0.2 mm 1 m/s 761 mmHg 74%
    10:00 +29°C° 0.2 mm 2 m/s 761 mmHg 67%
    11:00 +31°C° 0.2 mm 2 m/s 761 mmHg 60%
    12:00 +31°C° 0.2 mm 2 m/s 760 mmHg 57%
    13:00 +33°C° 0.2 mm 3 m/s 759 mmHg 54%
    14:00 +34°C° 0.2 mm 3 m/s 758 mmHg 51%
    15:00 +32°C° 0 mm 2 m/s 757 mmHg 51%
    16:00 +32°C° 0 mm 2 m/s 757 mmHg 52%
    17:00 +31°C° 0 mm 2 m/s 756 mmHg 53%
    18:00 +30°C° 0 mm 2 m/s 757 mmHg 59%
    19:00 +28°C° 0 mm 2 m/s 757 mmHg 64%
    20:00 +26°C° 0 mm 2 m/s 758 mmHg 70%
    21:00 +25°C° 0 mm 2 m/s 758 mmHg 77%
    22:00 +24°C° 0 mm 1 m/s 759 mmHg 85%
    23:00 +23°C° 0 mm 1 m/s 759 mmHg 92%

    26 Ianuarie, Sâmbătă

    Timp Temperatura Precipitaţii Vânt Presiune Umiditate
    00:00 +23°C° 0 mm 1 m/s 759 mmHg 94%
    01:00 +23°C° 0 mm 1 m/s 759 mmHg 96%
    02:00 +22°C° 0 mm 1 m/s 759 mmHg 98%
    03:00 +20°C° 0 mm 0 m/s 759 mmHg 98%
    04:00 +20°C° 0 mm 0 m/s 759 mmHg 98%
    05:00 +20°C° 0 mm 0 m/s 759 mmHg 98%
    06:00 +21°C° 0 mm 0 m/s 759 mmHg 94%
    07:00 +22°C° 0 mm 0 m/s 760 mmHg 89%
    08:00 +25°C° 0 mm 1 m/s 760 mmHg 85%
    09:00 +27°C° 0 mm 1 m/s 760 mmHg 75%
    10:00 +29°C° 0 mm 1 m/s 760 mmHg 66%
    11:00 +31°C° 0 mm 2 m/s 760 mmHg 57%
    12:00 +32°C° 0.1 mm 2 m/s 759 mmHg 55%
    13:00 +32°C° 0.1 mm 2 m/s 758 mmHg 53%
    14:00 +34°C° 0.1 mm 2 m/s 757 mmHg 51%
    15:00 +32°C° 0.2 mm 2 m/s 757 mmHg 55%
    16:00 +31°C° 0.2 mm 3 m/s 756 mmHg 59%
    17:00 +30°C° 0.2 mm 3 m/s 756 mmHg 63%
    18:00 +29°C° 0 mm 3 m/s 756 mmHg 68%
    19:00 +28°C° 0 mm 2 m/s 757 mmHg 74%
    20:00 +26°C° 0 mm 2 m/s 757 mmHg 79%
    21:00 +25°C° 0 mm 2 m/s 758 mmHg 83%
    22:00 +25°C° 0 mm 2 m/s 758 mmHg 88%
    23:00 +24°C° 0 mm 1 m/s 758 mmHg 92%

    27 Ianuarie, Duminică

    Timp Temperatura Precipitaţii Vânt Presiune Umiditate
    00:00 +24°C° 0 mm 1 m/s 758 mmHg 94%
    01:00 +23°C° 0 mm 1 m/s 758 mmHg 96%
    02:00 +23°C° 0 mm 1 m/s 758 mmHg 98%
    03:00 +23°C° 0 mm 1 m/s 758 mmHg 98%
    04:00 +23°C° 0 mm 1 m/s 758 mmHg 98%
    05:00 +21°C° 0 mm 0 m/s 758 mmHg 98%
    06:00 +24°C° 0 mm 1 m/s 758 mmHg 95%
    07:00 +24°C° 0 mm 1 m/s 759 mmHg 92%
    08:00 +25°C° 0 mm 1 m/s 759 mmHg 89%
    09:00 +27°C° 0 mm 2 m/s 759 mmHg 78%
    10:00 +29°C° 0 mm 2 m/s 759 mmHg 67%
    11:00 +32°C° 0 mm 2 m/s 759 mmHg 56%
    12:00 +34°C° 0.1 mm 2 m/s 758 mmHg 52%
    13:00 +35°C° 0.1 mm 2 m/s 758 mmHg 48%
    14:00 +36°C° 0.1 mm 2 m/s 757 mmHg 44%
    15:00 +35°C° 0 mm 2 m/s 756 mmHg 48%
    16:00 +34°C° 0 mm 2 m/s 756 mmHg 52%
    17:00 +32°C° 0 mm 2 m/s 755 mmHg 56%
    18:00 +30°C° 0 mm 2 m/s 756 mmHg 62%
    19:00 +28°C° 0 mm 2 m/s 756 mmHg 67%
    20:00 +27°C° 0 mm 3 m/s 757 mmHg 73%
    21:00 +26°C° 0 mm 2 m/s 757 mmHg 79%
    22:00 +25°C° 0 mm 2 m/s 758 mmHg 85%
    23:00 +24°C° 0 mm 1 m/s 758 mmHg 91%
    Arată mai mult